Location: Nelson
(41.2830°S, 173.2830°E)
Time: 04:27:14
(UTC+13:00)

Radarsat Rocket - Pass Details

Date: 01 October 2021
Orbit: 933 x 1492 km, 100.6° (Epoch: 23 October)

Event Time Altitude Azimuth Distance (km) Brightness Sun altitude
Rises 21:07:24 0° 171° (S) 4,233 7.5 -18.1°
Reaches altitude 10° 21:10:24 10° 178° (S) 3,175 6.9 -18.6°
Maximum altitude 21:16:48 37° 241° (WSW) 1,664 5.8 -19.7°
Drops below altitude 10° 21:22:32 10° 306° (NW) 2,823 6.8 -20.7°
Sets 21:25:04 0° 314° (NW) 3,711 7.3 -21.1°
